When you browse on this site, cookies collect data to enhance your experience and personalize the content and advertising you see.
Visit our Privacy Policy to learn more. By continuing to use the site, you agree to this use of cookies and data.
  • In Schweiz
  • Länderverzeichnis
  • Für 7 Tage
  • Wassertemperatur
  • Satellitenkarten
  • Wetterkarte
  • Widgets
  • user-avatar
    Anmelden

    Stündliche Wetter Tomashivka

    Heute, 21 April, Sonntag

    Zeit Temperatur Niederschläge Wind Luftdruck Luftfeuchtigkeit
    00:00 +8°C° 0.2 mm 3 m/S 739 mmHg 70%
    01:00 +8°C° 0.2 mm 3 m/S 738 mmHg 73%
    02:00 +7°C° 0.2 mm 2 m/S 738 mmHg 76%
    03:00 +7°C° 0.1 mm 2 m/S 738 mmHg 79%
    04:00 +7°C° 0.1 mm 2 m/S 738 mmHg 82%
    05:00 +7°C° 0.1 mm 2 m/S 737 mmHg 84%
    06:00 +8°C° 0.1 mm 2 m/S 737 mmHg 81%
    07:00 +8°C° 0.1 mm 2 m/S 737 mmHg 78%
    08:00 +9°C° 0.1 mm 2 m/S 737 mmHg 75%
    09:00 +10°C° 0.6 mm 3 m/S 737 mmHg 72%
    10:00 +11°C° 0.6 mm 3 m/S 737 mmHg 69%
    11:00 +12°C° 0.6 mm 3 m/S 737 mmHg 67%
    12:00 +12°C° 1 mm 3 m/S 737 mmHg 66%
    13:00 +13°C° 1 mm 2 m/S 737 mmHg 66%
    14:00 +13°C° 1 mm 2 m/S 736 mmHg 66%
    15:00 +13°C° 0.9 mm 2 m/S 736 mmHg 67%
    16:00 +13°C° 0.9 mm 2 m/S 736 mmHg 68%
    17:00 +13°C° 0.9 mm 2 m/S 735 mmHg 69%
    18:00 +12°C° 0.7 mm 2 m/S 736 mmHg 74%
    19:00 +12°C° 0.7 mm 2 m/S 736 mmHg 79%
    20:00 +10°C° 0.7 mm 2 m/S 736 mmHg 83%
    21:00 +9°C° 0.5 mm 3 m/S 736 mmHg 84%
    22:00 +8°C° 0.5 mm 4 m/S 736 mmHg 85%
    23:00 +8°C° 0.5 mm 5 m/S 736 mmHg 87%

    Morgen, 22 April, Montag

    Zeit Temperatur Niederschläge Wind Luftdruck Luftfeuchtigkeit
    00:00 +7°C° 0.1 mm 5 m/S 736 mmHg 85%
    01:00 +7°C° 0.1 mm 6 m/S 736 mmHg 83%
    02:00 +5°C° 0.1 mm 6 m/S 736 mmHg 81%
    03:00 +5°C° 0.1 mm 6 m/S 736 mmHg 81%
    04:00 +4°C° 0.1 mm 6 m/S 737 mmHg 82%
    05:00 +3°C° 0.1 mm 6 m/S 737 mmHg 82%
    06:00 +4°C° 0.2 mm 7 m/S 737 mmHg 78%
    07:00 +4°C° 0.2 mm 7 m/S 737 mmHg 73%
    08:00 +4°C° 0.2 mm 7 m/S 738 mmHg 68%
    09:00 +6°C° 0.1 mm 7 m/S 738 mmHg 63%
    10:00 +8°C° 0.1 mm 7 m/S 739 mmHg 57%
    11:00 +9°C° 0.1 mm 7 m/S 739 mmHg 52%
    12:00 +10°C° 0 mm 7 m/S 739 mmHg 50%
    13:00 +11°C° 0 mm 7 m/S 739 mmHg 48%
    14:00 +11°C° 0 mm 7 m/S 739 mmHg 46%
    15:00 +11°C° 0 mm 7 m/S 739 mmHg 48%
    16:00 +11°C° 0 mm 6 m/S 739 mmHg 51%
    17:00 +10°C° 0 mm 5 m/S 739 mmHg 53%
    18:00 +9°C° 0 mm 5 m/S 739 mmHg 58%
    19:00 +8°C° 0 mm 4 m/S 739 mmHg 63%
    20:00 +7°C° 0 mm 3 m/S 740 mmHg 68%
    21:00 +7°C° 0 mm 3 m/S 740 mmHg 69%
    22:00 +6°C° 0 mm 4 m/S 740 mmHg 69%
    23:00 +6°C° 0 mm 4 m/S 740 mmHg 70%

    übermorgen, 23 April, Dienstag

    Zeit Temperatur Niederschläge Wind Luftdruck Luftfeuchtigkeit
    00:00 +5°C° 0 mm 4 m/S 740 mmHg 70%
    01:00 +5°C° 0 mm 4 m/S 740 mmHg 69%
    02:00 +5°C° 0 mm 5 m/S 740 mmHg 69%
    03:00 +5°C° 0 mm 5 m/S 740 mmHg 69%
    04:00 +3°C° 0 mm 5 m/S 740 mmHg 69%
    05:00 +3°C° 0 mm 5 m/S 741 mmHg 69%
    06:00 +5°C° 0 mm 6 m/S 741 mmHg 64%
    07:00 +6°C° 0 mm 7 m/S 741 mmHg 59%
    08:00 +8°C° 0 mm 7 m/S 741 mmHg 54%
    09:00 +10°C° 0 mm 8 m/S 741 mmHg 51%
    10:00 +11°C° 0 mm 8 m/S 741 mmHg 49%
    11:00 +12°C° 0 mm 9 m/S 741 mmHg 47%
    12:00 +13°C° 0 mm 9 m/S 741 mmHg 46%
    13:00 +13°C° 0 mm 9 m/S 741 mmHg 45%
    14:00 +15°C° 0 mm 9 m/S 740 mmHg 44%
    15:00 +15°C° 0 mm 8 m/S 740 mmHg 45%
    16:00 +13°C° 0 mm 8 m/S 740 mmHg 46%
    17:00 +13°C° 0 mm 8 m/S 740 mmHg 47%
    18:00 +12°C° 0 mm 7 m/S 740 mmHg 51%
    19:00 +11°C° 0 mm 6 m/S 740 mmHg 55%
    20:00 +9°C° 0 mm 6 m/S 740 mmHg 60%
    21:00 +9°C° 0 mm 6 m/S 740 mmHg 61%
    22:00 +8°C° 0 mm 6 m/S 740 mmHg 62%
    23:00 +8°C° 0 mm 6 m/S 740 mmHg 64%

    24 April, Mittwoch

    Zeit Temperatur Niederschläge Wind Luftdruck Luftfeuchtigkeit
    00:00 +7°C° 0 mm 6 m/S 740 mmHg 66%
    01:00 +6°C° 0 mm 7 m/S 740 mmHg 68%
    02:00 +5°C° 0 mm 7 m/S 740 mmHg 70%
    03:00 +5°C° 0 mm 7 m/S 740 mmHg 70%
    04:00 +5°C° 0 mm 7 m/S 740 mmHg 70%
    05:00 +6°C° 0 mm 7 m/S 740 mmHg 69%
    06:00 +6°C° 0 mm 8 m/S 740 mmHg 67%
    07:00 +7°C° 0 mm 8 m/S 741 mmHg 65%
    08:00 +8°C° 0 mm 9 m/S 741 mmHg 63%
    09:00 +11°C° 0 mm 9 m/S 741 mmHg 59%
    10:00 +12°C° 0 mm 9 m/S 741 mmHg 56%
    11:00 +13°C° 0 mm 10 m/S 741 mmHg 53%
    12:00 +15°C° 0 mm 9 m/S 741 mmHg 52%
    13:00 +15°C° 0 mm 9 m/S 740 mmHg 52%
    14:00 +16°C° 0 mm 9 m/S 740 mmHg 51%
    15:00 +16°C° 0 mm 9 m/S 740 mmHg 53%
    16:00 +16°C° 0 mm 8 m/S 740 mmHg 54%
    17:00 +16°C° 0 mm 8 m/S 739 mmHg 55%
    18:00 +14°C° 0 mm 7 m/S 739 mmHg 58%
    19:00 +13°C° 0 mm 6 m/S 739 mmHg 62%
    20:00 +11°C° 0 mm 6 m/S 740 mmHg 65%
    21:00 +11°C° 0 mm 6 m/S 740 mmHg 66%
    22:00 +10°C° 0 mm 7 m/S 740 mmHg 66%
    23:00 +10°C° 0 mm 7 m/S 740 mmHg 67%

    25 April, Donnerstag

    Zeit Temperatur Niederschläge Wind Luftdruck Luftfeuchtigkeit
    00:00 +9°C° 0 mm 7 m/S 740 mmHg 69%
    01:00 +9°C° 0 mm 7 m/S 740 mmHg 71%
    02:00 +8°C° 0 mm 7 m/S 740 mmHg 73%
    03:00 +8°C° 0 mm 6 m/S 740 mmHg 73%
    04:00 +8°C° 0 mm 6 m/S 740 mmHg 73%
    05:00 +7°C° 0 mm 6 m/S 740 mmHg 74%
    06:00 +8°C° 0 mm 7 m/S 740 mmHg 71%
    07:00 +9°C° 0 mm 7 m/S 740 mmHg 68%
    08:00 +10°C° 0 mm 7 m/S 740 mmHg 66%
    09:00 +11°C° 0 mm 8 m/S 740 mmHg 63%
    10:00 +13°C° 0 mm 8 m/S 740 mmHg 60%
    11:00 +15°C° 0 mm 8 m/S 740 mmHg 57%
    12:00 +16°C° 0 mm 8 m/S 739 mmHg 55%
    13:00 +17°C° 0 mm 8 m/S 739 mmHg 54%
    14:00 +18°C° 0 mm 8 m/S 739 mmHg 52%
    15:00 +18°C° 0 mm 7 m/S 738 mmHg 53%
    16:00 +18°C° 0 mm 7 m/S 738 mmHg 54%
    17:00 +18°C° 0 mm 7 m/S 738 mmHg 55%
    18:00 +17°C° 0.1 mm 6 m/S 737 mmHg 59%
    19:00 +16°C° 0.1 mm 6 m/S 737 mmHg 63%
    20:00 +14°C° 0.1 mm 5 m/S 737 mmHg 67%
    21:00 +14°C° 0.5 mm 5 m/S 737 mmHg 69%
    22:00 +13°C° 0.5 mm 6 m/S 737 mmHg 71%
    23:00 +11°C° 0.5 mm 6 m/S 737 mmHg 73%

    26 April, Freitag

    Zeit Temperatur Niederschläge Wind Luftdruck Luftfeuchtigkeit
    00:00 +10°C° 0.1 mm 5 m/S 737 mmHg 74%
    01:00 +10°C° 0.1 mm 5 m/S 736 mmHg 74%
    02:00 +9°C° 0.1 mm 5 m/S 736 mmHg 75%
    03:00 +8°C° 0 mm 5 m/S 736 mmHg 76%
    04:00 +8°C° 0 mm 5 m/S 736 mmHg 77%
    05:00 +7°C° 0 mm 4 m/S 735 mmHg 78%
    06:00 +8°C° 0 mm 5 m/S 735 mmHg 76%
    07:00 +9°C° 0 mm 5 m/S 735 mmHg 74%
    08:00 +10°C° 0 mm 5 m/S 735 mmHg 72%
    09:00 +14°C° 0 mm 6 m/S 735 mmHg 69%
    10:00 +16°C° 0 mm 6 m/S 735 mmHg 65%
    11:00 +19°C° 0 mm 6 m/S 735 mmHg 62%
    12:00 +20°C° 0 mm 6 m/S 734 mmHg 59%
    13:00 +21°C° 0 mm 6 m/S 734 mmHg 56%
    14:00 +22°C° 0 mm 6 m/S 733 mmHg 53%
    15:00 +22°C° 0 mm 6 m/S 733 mmHg 53%
    16:00 +21°C° 0 mm 6 m/S 733 mmHg 53%
    17:00 +21°C° 0 mm 6 m/S 732 mmHg 53%
    18:00 +19°C° 0.8 mm 5 m/S 732 mmHg 59%
    19:00 +17°C° 0.8 mm 5 m/S 732 mmHg 65%
    20:00 +15°C° 0.8 mm 5 m/S 732 mmHg 71%
    21:00 +15°C° 0.1 mm 5 m/S 732 mmHg 72%
    22:00 +14°C° 0.1 mm 5 m/S 732 mmHg 72%
    23:00 +14°C° 0.1 mm 5 m/S 732 mmHg 72%
    Mehr zeigen